Time,TemperatureF,DewpointF,PressureIn,WindDirection,WindDirectionDegrees,WindSpeedMPH,WindSpeedGustMPH,Humidity,HourlyPrecipIn,Conditions,Clouds,dailyrainin,SoftwareType,DateUTC
2013-05-06 00:01:00,49.8,42.5,30.17,SSW,208,0.0,0.0,76,0.00,,,0.00,Wunderground v.1.15,2013-05-06 04:01:00,
2013-05-06 00:02:00,49.6,42.3,30.17,SSW,208,0.0,0.0,76,0.00,,,0.00,Wunderground v.1.15,2013-05-06 04:02:00,
2013-05-06 00:05:00,49.6,42.7,30.17,SSW,208,0.0,0.0,77,0.00,,,0.00,Wunderground v.1.15,2013-05-06 04:05:00,
2013-05-06 00:07:00,49.5,42.6,30.17,SSW,208,0.0,0.0,77,0.00,,,0.00,Wunderground v.1.15,2013-05-06 04:07:00,
2013-05-06 00:08:00,49.5,42.6,30.17,SSW,208,0.0,0.0,77,0.00,,,0.00,Wunderground v.1.15,2013-05-06 04:08:00,
2013-05-06 00:15:00,49.2,42.6,30.17,SW,220,0.0,1.0,78,0.00,,,0.00,Wunderground v.1.15,2013-05-06 04:15:00,
2013-05-06 00:20:00,49.1,42.5,30.17,SSW,212,0.0,0.0,78,0.00,,,0.00,Wunderground v.1.15,2013-05-06 04:20:00,
2013-05-06 00:26:00,48.9,42.3,30.17,South,172,0.0,0.0,78,0.00,,,0.00,Wunderground v.1.15,2013-05-06 04:26:00,
2013-05-06 00:31:00,48.6,42.4,30.17,WSW,241,0.0,1.0,79,0.00,,,0.00,Wunderground v.1.15,2013-05-06 04:31:00,
2013-05-06 00:37:00,48.5,42.3,30.17,SSW,202,0.0,1.0,79,0.00,,,0.00,Wunderground v.1.15,2013-05-06 04:37:00,
2013-05-06 00:42:00,48.5,42.3,30.17,SSW,202,0.0,0.0,79,0.00,,,0.00,Wunderground v.1.15,2013-05-06 04:42:00,
2013-05-06 00:47:00,48.3,42.4,30.17,SSW,202,0.0,0.0,80,0.00,,,0.00,Wunderground v.1.15,2013-05-06 04:47:00,
2013-05-06 00:55:00,48.3,42.4,30.17,SSW,202,0.0,0.0,80,0.00,,,0.00,Wunderground v.1.15,2013-05-06 04:55:00,
2013-05-06 01:01:00,48.2,42.3,30.17,SSW,202,0.0,0.0,80,0.00,,,0.00,Wunderground v.1.15,2013-05-06 05:01:00,
2013-05-06 01:06:00,47.9,42.3,30.17,SSW,202,0.0,0.0,81,0.00,,,0.00,Wunderground v.1.15,2013-05-06 05:06:00,
2013-05-06 01:12:00,47.6,42.4,30.17,SSW,202,0.0,0.0,82,0.00,,,0.00,Wunderground v.1.15,2013-05-06 05:12:00,
2013-05-06 01:18:00,47.1,41.9,30.17,SSW,202,0.0,0.0,82,0.00,,,0.00,Wunderground v.1.15,2013-05-06 05:18:00,
2013-05-06 01:25:00,46.8,41.9,30.17,SSW,202,0.0,0.0,83,0.00,,,0.00,Wunderground v.1.15,2013-05-06 05:25:00,
2013-05-06 01:31:00,46.5,41.9,30.17,SSW,202,0.0,0.0,84,0.00,,,0.00,Wunderground v.1.15,2013-05-06 05:31:00,
2013-05-06 01:37:00,46.2,41.6,30.17,SSW,202,0.0,0.0,84,0.00,,,0.00,Wunderground v.1.15,2013-05-06 05:37:00,
2013-05-06 01:42:00,46.0,41.7,30.17,SSW,202,0.0,0.0,85,0.00,,,0.00,Wunderground v.1.15,2013-05-06 05:42:00,
2013-05-06 01:48:00,45.7,41.8,30.17,SSW,202,0.0,0.0,86,0.00,,,0.00,Wunderground v.1.15,2013-05-06 05:48:00,
2013-05-06 01:55:00,45.2,41.6,30.17,SSW,202,0.0,0.0,87,0.00,,,0.00,Wunderground v.1.15,2013-05-06 05:55:00,
2013-05-06 02:01:00,44.9,41.6,30.17,SSW,202,0.0,0.0,88,0.00,,,0.00,Wunderground v.1.15,2013-05-06 06:01:00,
2013-05-06 02:06:00,44.6,41.3,30.16,SSW,202,0.0,0.0,88,0.00,,,0.00,Wunderground v.1.15,2013-05-06 06:06:00,
2013-05-06 02:11:00,44.3,41.0,30.16,SSW,202,0.0,0.0,88,0.00,,,0.00,Wunderground v.1.15,2013-05-06 06:11:00,
2013-05-06 02:17:00,44.1,40.8,30.16,SSW,202,0.0,0.0,88,0.00,,,0.00,Wunderground v.1.15,2013-05-06 06:17:00,
2013-05-06 02:22:00,43.9,40.9,30.16,SSW,202,0.0,0.0,89,0.00,,,0.00,Wunderground v.1.15,2013-05-06 06:22:00,
2013-05-06 02:27:00,43.6,40.6,30.16,SSW,202,0.0,0.0,89,0.00,,,0.00,Wunderground v.1.15,2013-05-06 06:27:00,
2013-05-06 02:32:00,43.5,40.5,30.16,SSW,202,0.0,0.0,89,0.00,,,0.00,Wunderground v.1.15,2013-05-06 06:32:00,
2013-05-06 02:37:00,43.3,40.6,30.15,SSW,202,0.0,0.0,90,0.00,,,0.00,Wunderground v.1.15,2013-05-06 06:37:00,
2013-05-06 02:42:00,43.1,40.7,30.15,SSW,202,0.0,0.0,91,0.00,,,0.00,Wunderground v.1.15,2013-05-06 06:42:00,
2013-05-06 02:47:00,42.8,40.4,30.15,SSW,202,0.0,0.0,91,0.00,,,0.00,Wunderground v.1.15,2013-05-06 06:47:00,
2013-05-06 02:52:00,42.6,40.2,30.15,SSW,202,0.0,0.0,91,0.00,,,0.00,Wunderground v.1.15,2013-05-06 06:52:00,
2013-05-06 02:57:00,42.5,40.3,30.15,SSW,202,0.0,0.0,92,0.00,,,0.00,Wunderground v.1.15,2013-05-06 06:57:00,
2013-05-06 03:02:00,42.2,40.0,30.15,SSW,202,0.0,0.0,92,0.00,,,0.00,Wunderground v.1.15,2013-05-06 07:02:00,
2013-05-06 03:07:00,42.1,39.9,30.15,SSW,202,0.0,0.0,92,0.00,,,0.00,Wunderground v.1.15,2013-05-06 07:07:00,
2013-05-06 03:12:00,41.9,39.7,30.15,SSW,202,0.0,0.0,92,0.00,,,0.00,Wunderground v.1.15,2013-05-06 07:12:00,
2013-05-06 03:17:00,41.6,39.7,30.15,SSW,202,0.0,0.0,93,0.00,,,0.00,Wunderground v.1.15,2013-05-06 07:17:00,
2013-05-06 03:22:00,41.5,39.6,30.15,SSW,202,0.0,0.0,93,0.00,,,0.00,Wunderground v.1.15,2013-05-06 07:22:00,
2013-05-06 03:27:00,41.3,39.4,30.15,SSW,202,0.0,0.0,93,0.00,,,0.00,Wunderground v.1.15,2013-05-06 07:27:00,
2013-05-06 03:32:00,41.1,39.2,30.15,SSW,202,0.0,0.0,93,0.00,,,0.00,Wunderground v.1.15,2013-05-06 07:32:00,
2013-05-06 03:37:00,40.9,39.0,30.15,SSW,202,0.0,0.0,93,0.00,,,0.00,Wunderground v.1.15,2013-05-06 07:37:00,
2013-05-06 03:42:00,40.8,38.9,30.15,SSW,202,0.0,0.0,93,0.00,,,0.00,Wunderground v.1.15,2013-05-06 07:42:00,
2013-05-06 03:47:00,40.6,38.7,30.15,SSW,202,0.0,0.0,93,0.00,,,0.00,Wunderground v.1.15,2013-05-06 07:47:00,
2013-05-06 03:52:00,40.5,38.6,30.15,SSW,202,0.0,0.0,93,0.00,,,0.00,Wunderground v.1.15,2013-05-06 07:52:00,
2013-05-06 03:57:00,40.2,38.6,30.15,SSW,202,0.0,0.0,94,0.00,,,0.00,Wunderground v.1.15,2013-05-06 07:57:00,
2013-05-06 04:02:00,40.1,38.5,30.15,SSW,202,0.0,0.0,94,0.00,,,0.00,Wunderground v.1.15,2013-05-06 08:02:00,
2013-05-06 04:07:00,39.9,38.3,30.15,SSW,202,0.0,0.0,94,0.00,,,0.00,Wunderground v.1.15,2013-05-06 08:07:00,
2013-05-06 04:12:00,39.8,38.2,30.15,SSW,202,0.0,0.0,94,0.00,,,0.00,Wunderground v.1.15,2013-05-06 08:12:00,
2013-05-06 04:17:00,39.6,38.0,30.15,SSW,202,0.0,0.0,94,0.00,,,0.00,Wunderground v.1.15,2013-05-06 08:17:00,
2013-05-06 04:22:00,39.5,37.9,30.15,SSW,202,0.0,0.0,94,0.00,,,0.00,Wunderground v.1.15,2013-05-06 08:22:00,
2013-05-06 04:28:00,39.3,37.7,30.15,SSW,202,0.0,0.0,94,0.00,,,0.00,Wunderground v.1.15,2013-05-06 08:28:00,
2013-05-06 04:33:00,39.2,37.6,30.15,SSW,202,0.0,0.0,94,0.00,,,0.00,Wunderground v.1.15,2013-05-06 08:33:00,
2013-05-06 04:38:00,38.9,37.3,30.15,SSW,202,0.0,0.0,94,0.00,,,0.00,Wunderground v.1.15,2013-05-06 08:38:00,
2013-05-06 04:43:00,38.8,37.2,30.15,SSW,202,0.0,0.0,94,0.00,,,0.00,Wunderground v.1.15,2013-05-06 08:43:00,
2013-05-06 04:48:00,38.6,37.0,30.15,SSW,202,0.0,0.0,94,0.00,,,0.00,Wunderground v.1.15,2013-05-06 08:48:00,
2013-05-06 04:53:00,38.5,36.9,30.16,SSW,202,0.0,0.0,94,0.00,,,0.00,Wunderground v.1.15,2013-05-06 08:53:00,
2013-05-06 04:58:00,38.3,36.7,30.16,SSW,202,0.0,0.0,94,0.00,,,0.00,Wunderground v.1.15,2013-05-06 08:58:00,
2013-05-06 05:03:00,38.2,36.6,30.16,SSW,202,0.0,0.0,94,0.00,,,0.00,Wunderground v.1.15,2013-05-06 09:03:00,
2013-05-06 05:08:00,38.0,36.4,30.16,SSW,202,0.0,0.0,94,0.00,,,0.00,Wunderground v.1.15,2013-05-06 09:08:00,
2013-05-06 05:13:00,37.9,36.3,30.16,SSW,202,0.0,0.0,94,0.00,,,0.00,Wunderground v.1.15,2013-05-06 09:13:00,
2013-05-06 05:18:00,37.8,36.2,30.16,SSW,202,0.0,0.0,94,0.00,,,0.00,Wunderground v.1.15,2013-05-06 09:18:00,
2013-05-06 05:25:00,37.5,35.9,30.16,SSW,202,0.0,0.0,94,0.00,,,0.00,Wunderground v.1.15,2013-05-06 09:25:00,
2013-05-06 05:30:00,37.3,35.7,30.16,SSW,202,0.0,0.0,94,0.00,,,0.00,Wunderground v.1.15,2013-05-06 09:30:00,
2013-05-06 05:36:00,37.2,35.6,30.17,SSW,202,0.0,0.0,94,0.00,,,0.00,Wunderground v.1.15,2013-05-06 09:36:00,
2013-05-06 05:41:00,37.2,35.6,30.17,SSW,202,0.0,0.0,94,0.00,,,0.00,Wunderground v.1.15,2013-05-06 09:41:00,
2013-05-06 05:46:00,36.9,35.3,30.17,SSW,202,0.0,0.0,94,0.00,,,0.00,Wunderground v.1.15,2013-05-06 09:46:00,
2013-05-06 05:51:00,36.9,35.6,30.17,SSW,202,0.0,0.0,95,0.00,,,0.00,Wunderground v.1.15,2013-05-06 09:51:00,
2013-05-06 05:56:00,36.8,35.5,30.17,SSW,202,0.0,0.0,95,0.00,,,0.00,Wunderground v.1.15,2013-05-06 09:56:00,
2013-05-06 06:01:00,36.6,35.3,30.17,SSW,202,0.0,0.0,95,0.00,,,0.00,Wunderground v.1.15,2013-05-06 10:01:00,
2013-05-06 06:06:00,36.6,35.3,30.18,SSW,202,0.0,0.0,95,0.00,,,0.00,Wunderground v.1.15,2013-05-06 10:06:00,
2013-05-06 06:11:00,36.5,35.2,30.18,SSW,202,0.0,0.0,95,0.00,,,0.00,Wunderground v.1.15,2013-05-06 10:11:00,
2013-05-06 06:16:00,36.5,35.2,30.18,SSW,202,0.0,0.0,95,0.00,,,0.00,Wunderground v.1.15,2013-05-06 10:16:00,
2013-05-06 06:21:00,36.5,35.2,30.18,SSW,202,0.0,0.0,95,0.00,,,0.00,Wunderground v.1.15,2013-05-06 10:21:00,
2013-05-06 06:26:00,36.5,35.2,30.18,SSW,202,0.0,0.0,95,0.00,,,0.00,Wunderground v.1.15,2013-05-06 10:26:00,
2013-05-06 06:31:00,36.5,35.2,30.18,SSW,202,0.0,0.0,95,0.00,,,0.00,Wunderground v.1.15,2013-05-06 10:31:00,
2013-05-06 06:37:00,36.5,35.2,30.19,SSW,202,0.0,0.0,95,0.00,,,0.00,Wunderground v.1.15,2013-05-06 10:37:00,
2013-05-06 06:42:00,36.6,35.6,30.19,SSW,202,0.0,0.0,96,0.00,,,0.00,Wunderground v.1.15,2013-05-06 10:42:00,
2013-05-06 06:47:00,36.8,35.8,30.19,SSW,202,0.0,0.0,96,0.00,,,0.00,Wunderground v.1.15,2013-05-06 10:47:00,
2013-05-06 06:52:00,37.2,36.2,30.20,SSW,202,0.0,0.0,96,0.00,,,0.00,Wunderground v.1.15,2013-05-06 10:52:00,
2013-05-06 06:57:00,37.5,36.5,30.20,SSW,202,0.0,0.0,96,0.00,,,0.00,Wunderground v.1.15,2013-05-06 10:57:00,
2013-05-06 07:02:00,37.8,36.8,30.20,SSW,202,0.0,0.0,96,0.00,,,0.00,Wunderground v.1.15,2013-05-06 11:02:00,
2013-05-06 07:07:00,38.2,37.4,30.20,SSW,202,0.0,0.0,97,0.00,,,0.00,Wunderground v.1.15,2013-05-06 11:07:00,
2013-05-06 07:12:00,38.6,37.8,30.20,SSW,202,0.0,0.0,97,0.00,,,0.00,Wunderground v.1.15,2013-05-06 11:12:00,
2013-05-06 07:17:00,39.1,38.1,30.20,SSW,202,0.0,0.0,96,0.00,,,0.00,Wunderground v.1.15,2013-05-06 11:17:00,
2013-05-06 07:22:00,39.5,38.5,30.20,SSW,202,0.0,0.0,96,0.00,,,0.00,Wunderground v.1.15,2013-05-06 11:22:00,
2013-05-06 07:27:00,39.9,38.9,30.20,SSW,202,0.0,0.0,96,0.00,,,0.00,Wunderground v.1.15,2013-05-06 11:27:00,
2013-05-06 07:32:00,40.2,39.2,30.20,SSW,202,0.0,0.0,96,0.00,,,0.00,Wunderground v.1.15,2013-05-06 11:32:00,
2013-05-06 07:37:00,40.8,39.7,30.21,SSW,202,0.0,0.0,96,0.00,,,0.00,Wunderground v.1.15,2013-05-06 11:37:00,
2013-05-06 07:42:00,41.5,40.4,30.21,SSW,202,0.0,0.0,96,0.00,,,0.00,Wunderground v.1.15,2013-05-06 11:42:00,
2013-05-06 07:47:00,42.3,41.2,30.21,SSW,202,0.0,0.0,96,0.00,,,0.00,Wunderground v.1.15,2013-05-06 11:47:00,
2013-05-06 07:52:00,43.2,41.6,30.21,SSW,202,0.0,0.0,94,0.00,,,0.00,Wunderground v.1.15,2013-05-06 11:52:00,
2013-05-06 07:57:00,44.1,42.2,30.21,SSW,202,0.0,0.0,93,0.00,,,0.00,Wunderground v.1.15,2013-05-06 11:57:00,
2013-05-06 08:02:00,44.6,41.8,30.21,SSW,202,0.0,0.0,90,0.00,,,0.00,Wunderground v.1.15,2013-05-06 12:02:00,
2013-05-06 08:07:00,45.5,42.2,30.21,SSW,202,0.0,0.0,88,0.00,,,0.00,Wunderground v.1.15,2013-05-06 12:07:00,
2013-05-06 08:12:00,46.1,41.5,30.21,South,189,0.0,0.0,84,0.00,,,0.00,Wunderground v.1.15,2013-05-06 12:12:00,
2013-05-06 08:17:00,46.8,41.9,30.21,East,90,0.0,0.0,83,0.00,,,0.00,Wunderground v.1.15,2013-05-06 12:17:00,
2013-05-06 08:23:00,47.4,41.9,30.21,SSW,200,0.0,0.0,81,0.00,,,0.00,Wunderground v.1.15,2013-05-06 12:23:00,
2013-05-06 08:28:00,48.2,42.3,30.21,SSW,200,0.0,0.0,80,0.00,,,0.00,Wunderground v.1.15,2013-05-06 12:28:00,
2013-05-06 08:33:00,48.6,42.7,30.21,SSW,200,0.0,0.0,80,0.00,,,0.00,Wunderground v.1.15,2013-05-06 12:33:00,
2013-05-06 08:38:00,49.1,43.2,30.21,SSW,200,0.0,0.0,80,0.00,,,0.00,Wunderground v.1.15,2013-05-06 12:38:00,
2013-05-06 08:43:00,49.5,43.3,30.21,WSW,240,0.0,0.0,79,0.00,,,0.00,Wunderground v.1.15,2013-05-06 12:43:00,
2013-05-06 08:48:00,49.8,43.5,30.21,WSW,237,3.0,6.0,79,0.00,,,0.00,Wunderground v.1.15,2013-05-06 12:48:00,
2013-05-06 08:53:00,49.8,43.2,30.21,SSW,200,3.0,4.0,78,0.00,,,0.00,Wunderground v.1.15,2013-05-06 12:53:00,
2013-05-06 08:58:00,49.8,43.5,30.21,South,178,0.0,4.0,79,0.00,,,0.00,Wunderground v.1.15,2013-05-06 12:58:00,
2013-05-06 09:03:00,49.8,43.5,30.21,South,172,5.0,5.0,79,0.00,,,0.00,Wunderground v.1.15,2013-05-06 13:03:00,
2013-05-06 09:08:00,49.9,43.6,30.21,WNW,299,0.0,5.0,79,0.00,,,0.00,Wunderground v.1.15,2013-05-06 13:08:00,
2013-05-06 09:13:00,50.2,43.6,30.21,SW,219,0.0,1.0,78,0.00,,,0.00,Wunderground v.1.15,2013-05-06 13:13:00,
2013-05-06 09:18:00,50.5,43.6,30.21,SSW,199,0.0,3.0,77,0.00,,,0.00,Wunderground v.1.15,2013-05-06 13:18:00,
2013-05-06 09:23:00,50.8,43.8,30.21,SW,215,0.0,0.0,77,0.00,,,0.00,Wunderground v.1.15,2013-05-06 13:23:00,
2013-05-06 09:28:00,51.0,44.0,30.21,SSE,161,3.0,3.0,77,0.00,,,0.00,Wunderground v.1.15,2013-05-06 13:28:00,
2013-05-06 09:33:00,51.3,43.6,30.21,West,271,2.0,6.0,75,0.00,,,0.00,Wunderground v.1.15,2013-05-06 13:33:00,
2013-05-06 09:38:00,51.6,44.3,30.21,South,174,2.0,6.0,76,0.00,,,0.00,Wunderground v.1.15,2013-05-06 13:38:00,
2013-05-06 09:43:00,52.0,43.6,30.21,SW,227,3.0,5.0,73,0.00,,,0.00,Wunderground v.1.15,2013-05-06 13:43:00,
2013-05-06 09:48:00,52.6,44.5,30.21,South,172,3.0,5.0,74,0.00,,,0.00,Wunderground v.1.15,2013-05-06 13:48:00,
2013-05-06 09:53:00,53.1,45.0,30.20,SSW,213,2.0,3.0,74,0.00,,,0.00,Wunderground v.1.15,2013-05-06 13:53:00,
2013-05-06 09:58:00,53.1,44.3,30.20,SW,216,0.0,5.0,72,0.00,,,0.00,Wunderground v.1.15,2013-05-06 13:58:00,
2013-05-06 10:03:00,53.3,44.5,30.20,SSW,202,0.0,2.0,72,0.00,,,0.00,Wunderground v.1.15,2013-05-06 14:03:00,
2013-05-06 10:08:00,53.8,45.3,30.20,NW,311,0.0,2.0,73,0.00,,,0.00,Wunderground v.1.15,2013-05-06 14:08:00,
2013-05-06 10:15:00,54.4,44.8,30.20,SW,215,2.0,4.0,70,0.00,,,0.00,Wunderground v.1.15,2013-05-06 14:15:00,
2013-05-06 10:20:00,54.5,45.3,30.21,South,175,2.0,2.0,71,0.00,,,0.00,Wunderground v.1.15,2013-05-06 14:20:00,
2013-05-06 10:26:00,54.7,45.1,30.21,ESE,121,2.0,3.0,70,0.00,,,0.00,Wunderground v.1.15,2013-05-06 14:26:00,
2013-05-06 10:31:00,55.0,44.6,30.21,SSE,158,1.0,6.0,68,0.00,,,0.00,Wunderground v.1.15,2013-05-06 14:31:00,
2013-05-06 10:36:00,55.0,45.8,30.20,SSW,208,0.0,6.0,71,0.00,,,0.00,Wunderground v.1.15,2013-05-06 14:36:00,
2013-05-06 10:41:00,55.3,45.3,30.20,SW,233,0.0,1.0,69,0.00,,,0.00,Wunderground v.1.15,2013-05-06 14:41:00,
2013-05-06 10:46:00,55.6,45.6,30.20,South,188,0.0,1.0,69,0.00,,,0.00,Wunderground v.1.15,2013-05-06 14:46:00,
2013-05-06 10:51:00,55.9,45.9,30.20,SW,223,0.0,0.0,69,0.00,,,0.00,Wunderground v.1.15,2013-05-06 14:51:00,
2013-05-06 10:57:00,56.3,45.1,30.20,WNW,289,0.0,0.0,66,0.00,,,0.00,Wunderground v.1.15,2013-05-06 14:57:00,
2013-05-06 11:02:00,56.5,45.7,30.20,WNW,296,1.0,2.0,67,0.00,,,0.00,Wunderground v.1.15,2013-05-06 15:02:00,
2013-05-06 11:07:00,57.2,46.3,30.20,SSW,208,4.0,5.0,67,0.00,,,0.00,Wunderground v.1.15,2013-05-06 15:07:00,
2013-05-06 11:12:00,57.5,45.4,30.20,WNW,302,0.0,2.0,64,0.00,,,0.00,Wunderground v.1.15,2013-05-06 15:12:00,
2013-05-06 11:17:00,57.8,45.7,30.20,SSW,208,0.0,2.0,64,0.00,,,0.00,Wunderground v.1.15,2013-05-06 15:17:00,
2013-05-06 11:22:00,58.3,46.6,30.19,NNW,336,0.0,1.0,65,0.00,,,0.00,Wunderground v.1.15,2013-05-06 15:22:00,
2013-05-06 11:27:00,58.7,46.5,30.19,SW,217,3.0,3.0,64,0.00,,,0.00,Wunderground v.1.15,2013-05-06 15:27:00,
2013-05-06 11:32:00,58.9,45.5,30.19,WSW,241,0.0,0.0,61,0.00,,,0.00,Wunderground v.1.15,2013-05-06 15:32:00,
2013-05-06 11:37:00,59.0,46.0,30.18,SW,216,0.0,0.0,62,0.00,,,0.00,Wunderground v.1.15,2013-05-06 15:37:00,
2013-05-06 11:42:00,59.6,46.1,30.18,North,357,0.0,0.0,61,0.00,,,0.00,Wunderground v.1.15,2013-05-06 15:42:00,
2013-05-06 11:47:00,60.5,46.5,30.18,SSW,202,0.0,0.0,60,0.00,,,0.00,Wunderground v.1.15,2013-05-06 15:47:00,
2013-05-06 11:52:00,61.0,46.1,30.17,SSW,208,0.0,0.0,58,0.00,,,0.00,Wunderground v.1.15,2013-05-06 15:52:00,
2013-05-06 11:57:00,61.3,45.9,30.17,SSW,193,3.0,7.0,57,0.00,,,0.00,Wunderground v.1.15,2013-05-06 15:57:00,
2013-05-06 12:02:00,61.8,45.9,30.17,NW,322,0.0,1.0,56,0.00,,,0.00,Wunderground v.1.15,2013-05-06 16:02:00,
2013-05-06 12:07:00,62.3,46.4,30.17,South,189,0.0,5.0,56,0.00,,,0.00,Wunderground v.1.15,2013-05-06 16:07:00,
2013-05-06 12:12:00,62.6,46.2,30.17,SSW,198,2.0,4.0,55,0.00,,,0.00,Wunderground v.1.15,2013-05-06 16:12:00,
2013-05-06 12:17:00,62.6,46.2,30.17,WSW,246,3.0,5.0,55,0.00,,,0.00,Wunderground v.1.15,2013-05-06 16:17:00,
2013-05-06 12:22:00,63.2,45.8,30.16,South,175,1.0,6.0,53,0.00,,,0.00,Wunderground v.1.15,2013-05-06 16:22:00,
2013-05-06 12:27:00,63.2,46.3,30.16,WSW,253,5.0,6.0,54,0.00,,,0.00,Wunderground v.1.15,2013-05-06 16:27:00,
2013-05-06 12:32:00,63.4,48.4,30.16,NW,320,2.0,4.0,58,0.00,,,0.00,Wunderground v.1.15,2013-05-06 16:32:00,
2013-05-06 12:37:00,63.9,46.9,30.15,SSW,208,0.0,5.0,54,0.00,,,0.00,Wunderground v.1.15,2013-05-06 16:37:00,
2013-05-06 12:42:00,64.0,46.0,30.15,NNW,336,4.0,6.0,52,0.00,,,0.00,Wunderground v.1.15,2013-05-06 16:42:00,
2013-05-06 12:47:00,64.3,46.3,30.15,NW,319,0.0,6.0,52,0.00,,,0.00,Wunderground v.1.15,2013-05-06 16:47:00,
2013-05-06 12:52:00,65.2,46.1,30.15,South,184,5.0,5.0,50,0.00,,,0.00,Wunderground v.1.15,2013-05-06 16:52:00,
2013-05-06 12:57:00,65.3,45.1,30.15,SSE,168,8.0,8.0,48,0.00,,,0.00,Wunderground v.1.15,2013-05-06 16:57:00,
2013-05-06 13:02:00,65.2,44.5,30.15,SSE,160,0.0,5.0,47,0.00,,,0.00,Wunderground v.1.15,2013-05-06 17:02:00,
2013-05-06 13:07:00,65.0,45.9,30.14,SW,226,1.0,6.0,50,0.00,,,0.00,Wunderground v.1.15,2013-05-06 17:07:00,
2013-05-06 13:12:00,65.5,47.4,30.14,WSW,239,0.0,2.0,52,0.00,,,0.00,Wunderground v.1.15,2013-05-06 17:12:00,
2013-05-06 13:17:00,66.0,46.3,30.14,West,272,0.0,2.0,49,0.00,,,0.00,Wunderground v.1.15,2013-05-06 17:17:00,
2013-05-06 13:22:00,66.9,46.6,30.13,SW,233,0.0,0.0,48,0.00,,,0.00,Wunderground v.1.15,2013-05-06 17:22:00,
2013-05-06 13:27:00,67.4,46.5,30.13,NNW,336,0.0,0.0,47,0.00,,,0.00,Wunderground v.1.15,2013-05-06 17:27:00,
2013-05-06 13:32:00,67.8,47.4,30.13,NW,304,2.0,6.0,48,0.00,,,0.00,Wunderground v.1.15,2013-05-06 17:32:00,
2013-05-06 13:37:00,67.9,45.8,30.12,SSW,200,2.0,6.0,45,0.00,,,0.00,Wunderground v.1.15,2013-05-06 17:37:00,
2013-05-06 13:42:00,68.3,47.3,30.12,South,175,0.0,3.0,47,0.00,,,0.00,Wunderground v.1.15,2013-05-06 17:42:00,
2013-05-06 13:47:00,67.9,48.0,30.12,SSW,209,0.0,6.0,49,0.00,,,0.00,Wunderground v.1.15,2013-05-06 17:47:00,
2013-05-06 13:52:00,68.4,47.9,30.11,South,189,1.0,2.0,48,0.00,,,0.00,Wunderground v.1.15,2013-05-06 17:52:00,
2013-05-06 13:57:00,68.9,47.3,30.11,SSE,168,4.0,5.0,46,0.00,,,0.00,Wunderground v.1.15,2013-05-06 17:57:00,
2013-05-06 14:02:00,68.6,46.4,30.11,SSW,212,0.0,5.0,45,0.00,,,0.00,Wunderground v.1.15,2013-05-06 18:02:00,
2013-05-06 14:07:00,68.4,47.9,30.11,SSW,205,3.0,5.0,48,0.00,,,0.00,Wunderground v.1.15,2013-05-06 18:07:00,
2013-05-06 14:12:00,69.3,48.2,30.11,NNW,336,0.0,6.0,47,0.00,,,0.00,Wunderground v.1.15,2013-05-06 18:12:00,
2013-05-06 14:18:00,69.9,47.6,30.11,WNW,287,2.0,6.0,45,0.00,,,0.00,Wunderground v.1.15,2013-05-06 18:18:00,
2013-05-06 14:23:00,70.4,48.0,30.10,SW,234,2.0,4.0,45,0.00,,,0.00,Wunderground v.1.15,2013-05-06 18:23:00,
2013-05-06 14:28:00,70.3,47.3,30.10,SSW,208,3.0,6.0,44,0.00,,,0.00,Wunderground v.1.15,2013-05-06 18:28:00,
2013-05-06 14:33:00,70.6,49.4,30.10,South,175,0.0,3.0,47,0.00,,,0.00,Wunderground v.1.15,2013-05-06 18:33:00,
2013-05-06 14:38:00,71.1,48.7,30.09,WSW,253,0.0,3.0,45,0.00,,,0.00,Wunderground v.1.15,2013-05-06 18:38:00,
2013-05-06 14:43:00,71.3,47.6,30.09,South,176,2.0,5.0,43,0.00,,,0.00,Wunderground v.1.15,2013-05-06 18:43:00,
2013-05-06 14:48:00,71.5,48.4,30.09,SSW,193,5.0,9.0,44,0.00,,,0.00,Wunderground v.1.15,2013-05-06 18:48:00,
2013-05-06 14:53:00,71.3,48.9,30.09,SSW,212,0.0,5.0,45,0.00,,,0.00,Wunderground v.1.15,2013-05-06 18:53:00,
2013-05-06 14:58:00,71.3,48.3,30.09,SW,226,2.0,6.0,44,0.00,,,0.00,Wunderground v.1.15,2013-05-06 18:58:00,
2013-05-06 15:03:00,71.5,49.0,30.09,North,0,6.0,6.0,45,0.00,,,0.00,Wunderground v.1.15,2013-05-06 19:03:00,
2013-05-06 15:08:00,72.1,48.4,30.08,SE,137,1.0,8.0,43,0.00,,,0.00,Wunderground v.1.15,2013-05-06 19:08:00,
2013-05-06 15:13:00,72.3,48.5,30.08,SW,216,2.0,5.0,43,0.00,,,0.00,Wunderground v.1.15,2013-05-06 19:13:00,
2013-05-06 15:18:00,72.5,50.5,30.08,West,264,2.0,5.0,46,0.00,,,0.00,Wunderground v.1.15,2013-05-06 19:18:00,
2013-05-06 15:25:00,72.8,48.4,30.07,SSW,198,0.0,6.0,42,0.00,,,0.00,Wunderground v.1.15,2013-05-06 19:25:00,
2013-05-06 15:31:00,73.5,49.0,30.07,SSW,210,0.0,1.0,42,0.00,,,0.00,Wunderground v.1.15,2013-05-06 19:31:00,
2013-05-06 15:36:00,73.5,48.4,30.07,SSW,192,2.0,8.0,41,0.00,,,0.00,Wunderground v.1.15,2013-05-06 19:36:00,
2013-05-06 15:41:00,73.2,48.7,30.07,WSW,253,0.0,2.0,42,0.00,,,0.00,Wunderground v.1.15,2013-05-06 19:41:00,
2013-05-06 15:46:00,73.3,48.2,30.07,SW,224,2.0,3.0,41,0.00,,,0.00,Wunderground v.1.15,2013-05-06 19:46:00,
2013-05-06 15:51:00,73.5,49.0,30.06,NW,313,1.0,2.0,42,0.00,,,0.00,Wunderground v.1.15,2013-05-06 19:51:00,
2013-05-06 15:56:00,73.9,48.1,30.06,WNW,298,5.0,5.0,40,0.00,,,0.00,Wunderground v.1.15,2013-05-06 19:56:00,
2013-05-06 16:01:00,73.7,48.5,30.06,SW,229,0.0,2.0,41,0.00,,,0.00,Wunderground v.1.15,2013-05-06 20:01:00,
2013-05-06 16:06:00,73.7,47.2,30.06,SSW,196,0.0,5.0,39,0.00,,,0.00,Wunderground v.1.15,2013-05-06 20:06:00,
2013-05-06 16:11:00,73.9,49.4,30.06,SW,234,4.0,5.0,42,0.00,,,0.00,Wunderground v.1.15,2013-05-06 20:11:00,
2013-05-06 16:16:00,74.0,48.8,30.06,West,280,1.0,5.0,41,0.00,,,0.00,Wunderground v.1.15,2013-05-06 20:16:00,
2013-05-06 16:21:00,74.4,47.8,30.05,South,176,4.0,6.0,39,0.00,,,0.00,Wunderground v.1.15,2013-05-06 20:21:00,
2013-05-06 16:26:00,74.2,47.6,30.05,South,178,3.0,6.0,39,0.00,,,0.00,Wunderground v.1.15,2013-05-06 20:26:00,
2013-05-06 16:31:00,74.4,48.5,30.05,West,265,1.0,3.0,40,0.00,,,0.00,Wunderground v.1.15,2013-05-06 20:31:00,
2013-05-06 16:36:00,74.2,49.0,30.04,West,265,0.0,3.0,41,0.00,,,0.00,Wunderground v.1.15,2013-05-06 20:36:00,
2013-05-06 16:41:00,73.9,48.7,30.04,SSW,202,2.0,3.0,41,0.00,,,0.00,Wunderground v.1.15,2013-05-06 20:41:00,
2013-05-06 16:46:00,73.9,49.4,30.04,SSW,205,4.0,4.0,42,0.00,,,0.00,Wunderground v.1.15,2013-05-06 20:46:00,
2013-05-06 16:51:00,73.7,48.5,30.04,ESE,106,1.0,1.0,41,0.00,,,0.00,Wunderground v.1.15,2013-05-06 20:51:00,
2013-05-06 16:56:00,73.5,49.0,30.04,SSE,165,2.0,5.0,42,0.00,,,0.00,Wunderground v.1.15,2013-05-06 20:56:00,
2013-05-06 17:01:00,73.9,47.4,30.04,North,0,3.0,3.0,39,0.00,,,0.00,Wunderground v.1.15,2013-05-06 21:01:00,
2013-05-06 17:07:00,74.2,48.3,30.04,ESE,103,0.0,3.0,40,0.00,,,0.00,Wunderground v.1.15,2013-05-06 21:07:00,
2013-05-06 17:12:00,73.9,46.7,30.04,SSE,167,1.0,5.0,38,0.00,,,0.00,Wunderground v.1.15,2013-05-06 21:12:00,
2013-05-06 17:17:00,73.7,46.5,30.04,South,169,0.0,5.0,38,0.00,,,0.00,Wunderground v.1.15,2013-05-06 21:17:00,
2013-05-06 17:22:00,73.7,46.5,30.03,SW,215,2.0,2.0,38,0.00,,,0.00,Wunderground v.1.15,2013-05-06 21:22:00,
2013-05-06 17:27:00,73.7,46.5,30.03,SW,226,0.0,2.0,38,0.00,,,0.00,Wunderground v.1.15,2013-05-06 21:27:00,
2013-05-06 17:32:00,73.7,44.3,30.03,South,169,0.0,0.0,35,0.00,,,0.00,Wunderground v.1.15,2013-05-06 21:32:00,
2013-05-06 17:37:00,73.5,44.9,30.03,South,181,0.0,3.0,36,0.00,,,0.00,Wunderground v.1.15,2013-05-06 21:37:00,
2013-05-06 17:42:00,73.5,44.9,30.03,SSE,167,2.0,6.0,36,0.00,,,0.00,Wunderground v.1.15,2013-05-06 21:42:00,
2013-05-06 17:47:00,73.7,45.1,30.03,South,185,2.0,6.0,36,0.00,,,0.00,Wunderground v.1.15,2013-05-06 21:47:00,
2013-05-06 17:52:00,73.9,43.8,30.03,South,174,3.0,4.0,34,0.00,,,0.00,Wunderground v.1.15,2013-05-06 21:52:00,
2013-05-06 17:57:00,73.7,44.3,30.03,SSE,168,3.0,10.0,35,0.00,,,0.00,Wunderground v.1.15,2013-05-06 21:57:00,
2013-05-06 18:02:00,73.3,46.2,30.03,West,280,2.0,3.0,38,0.00,,,0.00,Wunderground v.1.15,2013-05-06 22:02:00,
2013-05-06 18:07:00,73.3,44.7,30.03,SW,215,0.0,6.0,36,0.00,,,0.00,Wunderground v.1.15,2013-05-06 22:07:00,
2013-05-06 18:12:00,73.0,43.7,30.03,SSW,210,1.0,3.0,35,0.00,,,0.00,Wunderground v.1.15,2013-05-06 22:12:00,
2013-05-06 18:17:00,73.0,45.2,30.03,SSW,196,0.0,5.0,37,0.00,,,0.00,Wunderground v.1.15,2013-05-06 22:17:00,
2013-05-06 18:22:00,73.0,45.2,30.03,South,175,0.0,1.0,37,0.00,,,0.00,Wunderground v.1.15,2013-05-06 22:22:00,
2013-05-06 18:27:00,73.0,45.2,30.03,SSW,200,0.0,1.0,37,0.00,,,0.00,Wunderground v.1.15,2013-05-06 22:27:00,
2013-05-06 18:32:00,73.0,45.9,30.03,SSE,162,0.0,1.0,38,0.00,,,0.00,Wunderground v.1.15,2013-05-06 22:32:00,
2013-05-06 18:38:00,72.8,47.7,30.03,SSW,212,0.0,1.0,41,0.00,,,0.00,Wunderground v.1.15,2013-05-06 22:38:00,
2013-05-06 18:43:00,72.5,46.1,30.03,South,182,0.0,0.0,39,0.00,,,0.00,Wunderground v.1.15,2013-05-06 22:43:00,
2013-05-06 18:48:00,72.3,47.3,30.03,South,179,0.0,0.0,41,0.00,,,0.00,Wunderground v.1.15,2013-05-06 22:48:00,
2013-05-06 18:53:00,72.0,47.6,30.03,South,179,0.0,0.0,42,0.00,,,0.00,Wunderground v.1.15,2013-05-06 22:53:00,
2013-05-06 18:58:00,71.8,48.7,30.03,South,178,0.0,0.0,44,0.00,,,0.00,Wunderground v.1.15,2013-05-06 22:58:00,
2013-05-06 19:03:00,71.5,48.4,30.03,SSW,199,0.0,0.0,44,0.00,,,0.00,Wunderground v.1.15,2013-05-06 23:03:00,
2013-05-06 19:08:00,71.1,48.7,30.03,South,191,2.0,5.0,45,0.00,,,0.00,Wunderground v.1.15,2013-05-06 23:08:00,
2013-05-06 19:13:00,70.8,49.0,30.03,WSW,248,0.0,3.0,46,0.00,,,0.00,Wunderground v.1.15,2013-05-06 23:13:00,
2013-05-06 19:18:00,70.4,49.2,30.03,SSW,205,0.0,3.0,47,0.00,,,0.00,Wunderground v.1.15,2013-05-06 23:18:00,
2013-05-06 19:23:00,70.1,49.5,30.04,SSW,203,0.0,0.0,48,0.00,,,0.00,Wunderground v.1.15,2013-05-06 23:23:00,
2013-05-06 19:28:00,69.8,49.8,30.04,SW,216,0.0,0.0,49,0.00,,,0.00,Wunderground v.1.15,2013-05-06 23:28:00,
2013-05-06 19:33:00,69.4,49.9,30.04,SSE,151,0.0,0.0,50,0.00,,,0.00,Wunderground v.1.15,2013-05-06 23:33:00,
2013-05-06 19:38:00,69.1,50.7,30.04,SSW,210,0.0,0.0,52,0.00,,,0.00,Wunderground v.1.15,2013-05-06 23:38:00,
2013-05-06 19:45:00,68.4,51.1,30.04,South,176,1.0,1.0,54,0.00,,,0.00,Wunderground v.1.15,2013-05-06 23:45:00,
2013-05-06 19:51:00,68.1,51.8,30.04,SW,219,2.0,3.0,56,0.00,,,0.00,Wunderground v.1.15,2013-05-06 23:51:00,
2013-05-06 19:56:00,67.6,51.8,30.04,SSE,158,3.0,3.0,57,0.00,,,0.00,Wunderground v.1.15,2013-05-06 23:56:00,
2013-05-06 20:01:00,67.3,52.0,30.04,SSW,198,0.0,2.0,58,0.00,,,0.00,Wunderground v.1.15,2013-05-07 00:01:00,
2013-05-06 20:06:00,66.9,52.1,30.05,SSW,205,0.0,3.0,59,0.00,,,0.00,Wunderground v.1.15,2013-05-07 00:06:00,
2013-05-06 20:12:00,66.6,52.7,30.05,SE,131,0.0,1.0,61,0.00,,,0.00,Wunderground v.1.15,2013-05-07 00:12:00,
2013-05-06 20:17:00,66.1,52.7,30.05,SE,131,0.0,1.0,62,0.00,,,0.00,Wunderground v.1.15,2013-05-07 00:17:00,
2013-05-06 20:22:00,65.6,52.2,30.06,South,186,2.0,4.0,62,0.00,,,0.00,Wunderground v.1.15,2013-05-07 00:22:00,
2013-05-06 20:27:00,65.3,52.4,30.06,South,186,2.0,4.0,63,0.00,,,0.00,Wunderground v.1.15,2013-05-07 00:27:00,
2013-05-06 20:32:00,65.0,52.5,30.06,SSW,198,5.0,6.0,64,0.00,,,0.00,Wunderground v.1.15,2013-05-07 00:32:00,
2013-05-06 20:37:00,64.7,53.5,30.06,SSW,198,1.0,6.0,67,0.00,,,0.00,Wunderground v.1.15,2013-05-07 00:37:00,
2013-05-06 20:42:00,64.3,52.7,30.06,SSW,198,0.0,1.0,66,0.00,,,0.00,Wunderground v.1.15,2013-05-07 00:42:00,
2013-05-06 20:47:00,63.9,52.7,30.06,SSW,198,0.0,2.0,67,0.00,,,0.00,Wunderground v.1.15,2013-05-07 00:47:00,
2013-05-06 20:52:00,63.5,52.3,30.07,South,172,2.0,3.0,67,0.00,,,0.00,Wunderground v.1.15,2013-05-07 00:52:00,
2013-05-06 20:57:00,63.2,52.1,30.07,South,171,0.0,3.0,67,0.00,,,0.00,Wunderground v.1.15,2013-05-07 00:57:00,
2013-05-06 21:03:00,62.9,53.0,30.07,South,171,0.0,1.0,70,0.00,,,0.00,Wunderground v.1.15,2013-05-07 01:03:00,
2013-05-06 21:08:00,62.6,53.1,30.07,South,171,0.0,1.0,71,0.00,,,0.00,Wunderground v.1.15,2013-05-07 01:08:00,
2013-05-06 21:13:00,62.1,52.2,30.07,SSE,168,0.0,0.0,70,0.00,,,0.00,Wunderground v.1.15,2013-05-07 01:13:00,
2013-05-06 21:18:00,62.0,52.9,30.07,SSE,168,0.0,0.0,72,0.00,,,0.00,Wunderground v.1.15,2013-05-07 01:18:00,
2013-05-06 21:23:00,61.8,52.7,30.08,South,185,0.0,0.0,72,0.00,,,0.00,Wunderground v.1.15,2013-05-07 01:23:00,
2013-05-06 21:28:00,61.5,53.1,30.08,South,185,0.0,0.0,74,0.00,,,0.00,Wunderground v.1.15,2013-05-07 01:28:00,
2013-05-06 21:33:00,61.2,52.8,30.08,South,185,0.0,0.0,74,0.00,,,0.00,Wunderground v.1.15,2013-05-07 01:33:00,
2013-05-06 21:38:00,60.9,52.9,30.09,SSW,203,0.0,0.0,75,0.00,,,0.00,Wunderground v.1.15,2013-05-07 01:38:00,
2013-05-06 21:43:00,60.5,52.9,30.09,SSW,203,1.0,2.0,76,0.00,,,0.00,Wunderground v.1.15,2013-05-07 01:43:00,
2013-05-06 21:48:00,60.4,52.4,30.09,SSW,203,0.0,2.0,75,0.00,,,0.00,Wunderground v.1.15,2013-05-07 01:48:00,
2013-05-06 21:53:00,60.1,52.5,30.09,SSW,203,0.0,0.0,76,0.00,,,0.00,Wunderground v.1.15,2013-05-07 01:53:00,
2013-05-06 21:58:00,59.9,52.3,30.09,SSW,203,0.0,0.0,76,0.00,,,0.00,Wunderground v.1.15,2013-05-07 01:58:00,
2013-05-06 22:03:00,59.6,52.7,30.09,SSW,203,0.0,0.0,78,0.00,,,0.00,Wunderground v.1.15,2013-05-07 02:03:00,
2013-05-06 22:08:00,59.3,52.4,30.09,SSW,203,0.0,0.0,78,0.00,,,0.00,Wunderground v.1.15,2013-05-07 02:08:00,
2013-05-06 22:13:00,59.0,52.5,30.09,SSW,203,0.0,0.0,79,0.00,,,0.00,Wunderground v.1.15,2013-05-07 02:13:00,
2013-05-06 22:18:00,58.9,52.7,30.09,SSW,203,0.0,0.0,80,0.00,,,0.00,Wunderground v.1.15,2013-05-07 02:18:00,
2013-05-06 22:23:00,58.6,52.4,30.09,SSW,203,0.0,0.0,80,0.00,,,0.00,Wunderground v.1.15,2013-05-07 02:23:00,
2013-05-06 22:28:00,58.3,52.5,30.09,SSW,203,0.0,0.0,81,0.00,,,0.00,Wunderground v.1.15,2013-05-07 02:28:00,
2013-05-06 22:33:00,58.0,52.2,30.09,SSW,203,0.0,0.0,81,0.00,,,0.00,Wunderground v.1.15,2013-05-07 02:33:00,
2013-05-06 22:38:00,57.8,52.3,30.09,SSW,203,0.0,0.0,82,0.00,,,0.00,Wunderground v.1.15,2013-05-07 02:38:00,
2013-05-06 22:43:00,57.5,52.0,30.09,SSW,203,0.0,0.0,82,0.00,,,0.00,Wunderground v.1.15,2013-05-07 02:43:00,
2013-05-06 22:49:00,57.5,52.0,30.09,SSW,203,0.0,0.0,82,0.00,,,0.00,Wunderground v.1.15,2013-05-07 02:49:00,
2013-05-06 22:54:00,57.5,52.0,30.09,SSW,203,0.0,0.0,82,0.00,,,0.00,Wunderground v.1.15,2013-05-07 02:54:00,
2013-05-06 22:59:00,57.3,51.9,30.09,SSW,203,0.0,0.0,82,0.00,,,0.00,Wunderground v.1.15,2013-05-07 02:59:00,
2013-05-06 23:04:00,57.0,51.6,30.09,SSW,203,0.0,0.0,82,0.00,,,0.00,Wunderground v.1.15,2013-05-07 03:04:00,
2013-05-06 23:09:00,56.9,51.5,30.09,SSW,203,0.0,0.0,82,0.00,,,0.00,Wunderground v.1.15,2013-05-07 03:09:00,
2013-05-06 23:14:00,56.7,51.3,30.09,SSW,203,0.0,0.0,82,0.00,,,0.00,Wunderground v.1.15,2013-05-07 03:14:00,
2013-05-06 23:19:00,56.6,51.2,30.09,SSW,203,0.0,0.0,82,0.00,,,0.00,Wunderground v.1.15,2013-05-07 03:19:00,
2013-05-06 23:24:00,56.5,51.4,30.09,SSW,203,0.0,0.0,83,0.00,,,0.00,Wunderground v.1.15,2013-05-07 03:24:00,
2013-05-06 23:29:00,56.2,51.1,30.09,SSW,203,0.0,0.0,83,0.00,,,0.00,Wunderground v.1.15,2013-05-07 03:29:00,
2013-05-06 23:34:00,55.9,51.1,30.09,SSW,203,0.0,0.0,84,0.00,,,0.00,Wunderground v.1.15,2013-05-07 03:34:00,
2013-05-06 23:39:00,55.7,51.3,30.09,SSW,203,0.0,1.0,85,0.00,,,0.00,Wunderground v.1.15,2013-05-07 03:39:00,
2013-05-06 23:44:00,55.6,51.5,30.09,SSW,203,0.0,0.0,86,0.00,,,0.00,Wunderground v.1.15,2013-05-07 03:44:00,
2013-05-06 23:49:00,55.3,51.5,30.09,SSW,203,0.0,0.0,87,0.00,,,0.00,Wunderground v.1.15,2013-05-07 03:49:00,
2013-05-06 23:56:00,54.8,51.3,30.09,SSW,203,0.0,0.0,88,0.00,,,0.00,Wunderground v.1.15,2013-05-07 03:56:00,